This is the latest recevied weather packets stored in our database for station/object SP1BMW-13. If no packets are shown the sender has not sent any weather packets the latest 10 day(s).
| Time | Temp. | Humidity | Pressure | Rain* | Wind** | Luminosity | Snow |
|---|---|---|---|---|---|---|---|
| 1787945358 | 21.11° C | 78% | 1007.4 hPa | 0 mm | 0.45 m/s, 53° | 0 W/m² | - |
| 1787945299 | 21.11° C | 78% | 1007.4 hPa | 0 mm | 0.45 m/s, 39° | 0 W/m² | - |
| 1787945239 | 21.11° C | 78% | 1007.4 hPa | 0 mm | 0.89 m/s, 46° | 0 W/m² | - |
| 1787945178 | 21.11° C | 78% | 1007.6 hPa | 0 mm | 0 m/s | 0 W/m² | - |
| 1787945118 | 21.11° C | 78% | 1007.4 hPa | 0 mm | 0.45 m/s, 42° | 0 W/m² | - |
| 1787945058 | 21.11° C | 78% | 1007.4 hPa | 0 mm | 0.45 m/s, 42° | 0 W/m² | - |
| 1787944998 | 21.11° C | 78% | 1007.4 hPa | 0 mm | 0.89 m/s, 43° | 0 W/m² | - |
| 1787944938 | 21.11° C | 78% | 1007.4 hPa | 0 mm | 0.89 m/s, 37° | 0 W/m² | - |
| 1787944878 | 21.11° C | 78% | 1007.6 hPa | 0 mm | 0.45 m/s, 59° | 0 W/m² | - |
| 1787944818 | 21.11° C | 78% | 1007.5 hPa | 0 mm | 0.45 m/s, 28° | 0 W/m² | - |
| 1787944758 | 21.11° C | 78% | 1007.5 hPa | 0 mm | 0 m/s | 0 W/m² | - |
| 1787944698 | 21.11° C | 78% | 1007.5 hPa | 0 mm | 0.45 m/s, 62° | 0 W/m² | - |
| 1787944638 | 21.11° C | 78% | 1007.7 hPa | 0 mm | 0 m/s | 0 W/m² | - |
| 1787944578 | 21.11° C | 78% | 1007.4 hPa | 0 mm | 1.34 m/s, 51° | 0 W/m² | - |
| 1787944518 | 21.11° C | 78% | 1007.4 hPa | 0 mm | 0.45 m/s, 53° | 0 W/m² | - |
| 1787944458 | 21.11° C | 78% | 1007.4 hPa | 0 mm | 0.45 m/s, 127° | 0 W/m² | - |
| 1787944398 | 21.11° C | 78% | 1007.5 hPa | 0 mm | 0.45 m/s, 78° | 0 W/m² | - |
| 1787944339 | 21.11° C | 78% | 1007.4 hPa | 0 mm | 0 m/s | 0 W/m² | - |
| 1787944278 | 21.11° C | 77% | 1007.4 hPa | 0 mm | 0 m/s | 0 W/m² | - |
| 1787944218 | 21.11° C | 77% | 1007.6 hPa | 0 mm | 1.34 m/s, 37° | 0 W/m² | - |
| 1787944158 | 21.11° C | 77% | 1007.6 hPa | 0 mm | 0.89 m/s, 44° | 0 W/m² | - |
| 1787944098 | 21.11° C | 77% | 1007.7 hPa | 0 mm | 0.45 m/s, 46° | 0 W/m² | - |
| 1787944038 | 21.11° C | 77% | 1007.5 hPa | 0 mm | 0.45 m/s, 55° | 0 W/m² | - |
| 1787943978 | 21.11° C | 77% | 1007.7 hPa | 0 mm | 0.45 m/s, 25° | 0 W/m² | - |
| 1787943918 | 21.11° C | 77% | 1007.6 hPa | 0 mm | 0.89 m/s, 39° | 0 W/m² | - |
* Rain latest hour (hover to see other rain measurements)
** Current wind speed in m/s (hover to see current wind gust speed)